Flag for Grenada Weather past 2 weeks in Saint George's, Grenada

Now
81 °F

Passing clouds.


Feels Like: 88 °F
Forecast: 76 / 82 °F
Wind: 12 mph from East

Location: Point Salines Airport

Current Time: Sep 17, 2014 at 4:03:41 AM

Latest Report: Sep 17, 2014 at 3:00 AM


Visibility: N/A

Pressure: 29.86 "Hg

Humidity: 94%

Dew point: 79 °F

Location of Saint George'sLocation

Historic Weather in Saint George's — Graph

°F

Saint George's temperature yesterday

Maximum temperature yesterday: 88 °F (at 10:00 AM)
Minimum temperature yesterday: 79 °F (at 3:00 AM)
Average temperature yesterday: 83 °F

Past Weeks' High & Low Weather Summary

 TemperatureHumidityPressure
High90 °F (Sep 5, 11:00 AM)100% (Sep 11, 7:00 AM)30.01 "Hg (Sep 11, 7:00 AM)
Low68 °F (Sep 15, 10:00 AM)62% (Sep 9, 10:00 AM)29.83 "Hg (Sep 2, 4:00 PM)
Average83 °F82%29.91 "Hg
* Reported Sep 2 3:00 AM — Sep 17 3:00 AM, Saint George's, Weather by CustomWeather, © 2014

Note: Actual official high and low records may vary slightly from our data, if they occured in-between our weather recording intervals... More about our weather records

Advertising

Saint George's weather history for previous 24 hours

 ConditionsComfort  
Time TempWeatherWind HumidityBarometerVisibility
3:00 AM
Sep 17
81 °FPassing clouds.12 mph94%29.86 "HgN/A
2:00 AM81 °FPassing clouds.9 mph94%29.86 "HgN/A
1:00 AM81 °FPassing clouds.12 mph89%29.89 "HgN/A
12:00 AM81 °FPassing clouds.9 mph89%29.89 "HgN/A
11:00 PM
Sep 16
81 °FPassing clouds.12 mph89%29.92 "HgN/A
10:00 PM81 °FPassing clouds.8 mph89%29.92 "HgN/A
9:30 PM81 °FPassing clouds.5 mph89%29.92 "HgN/A
8:00 PM81 °FPassing clouds.6 mph89%29.89 "HgN/A
7:00 PM81 °FPassing clouds.6 mph84%29.89 "HgN/A
6:00 PM82 °FPassing clouds.9 mph79%29.86 "HgN/A
5:00 PM84 °FPassing clouds.15 mph79%29.86 "HgN/A
4:00 PM84 °FScattered clouds.16 mph79%29.86 "HgN/A
3:00 PM86 °FScattered clouds.14 mph75%29.86 "HgN/A
2:00 PM88 °FScattered clouds.17 mph70%29.89 "HgN/A
1:00 PM86 °FScattered clouds.14 mph75%29.92 "HgN/A
12:00 PM88 °FScattered clouds.14 mph70%29.95 "HgN/A
11:00 AM88 °FScattered clouds.14 mph75%29.95 "HgN/A
10:00 AM88 °FScattered clouds.15 mph70%29.98 "HgN/A
9:00 AM86 °FScattered clouds.15 mph75%29.98 "HgN/A
8:00 AM82 °FScattered clouds.12 mph89%29.95 "HgN/A
7:00 AM81 °FScattered clouds.8 mph89%29.95 "HgN/A
6:00 AM79 °FScattered clouds.7 mph94%29.92 "HgN/A
5:00 AM79 °FPassing clouds.7 mph94%29.92 "HgN/A
4:00 AM79 °FPassing clouds.6 mph89%29.89 "HgN/A
Weather by CustomWeather, © 2014

See weather overviewHow to use our weather pages